EHI
0 0 0 0 0 0 0 0 0 0 0 0 0 0 0 0 0 0 0 0 0 1 2 1 0 0 0 0 0 0 0 0 0 0 0 0 0 0 0 0 0 0 0
0 0 0 0 0 0 0 0 0 0 0 0 0 0 0 0 0 0 0 0 0 1 2 2 1 0 0 0 0 0 0 0 0 0 0 0 0 0 0 0 0 0 0
0 0 0 0 0 0 0 0 0 0 0 0 0 0 0 0 0 0 0 0 0 0 1 2 2 1 0 0 0 0 0 0 0 0 0 0 0 0 0 0 0 0 0
0 0 0 0 0 0 0 0 0 0 0 0 0 0 0 0 0 0 0 0 0 0 0 1 1 1 0 0 0 0 0 0 0 0 0 0 0 0 0 0 0 0 0
0 0 0 0 0 0 0 0 0 0 0 0 0 0 0 0 0 0 0 0 0 0 0 0 0 0 0 0 0 0 0 0 0 0 0 0 0 0 0 0 0 0 0
0 0 0 0 0 0 0 0 0 0 0 0 0 0 0 0 0 0 0 0 0 0 0 0 0 0 0 0 0 0 0 0 0 0 0 0 0 0 0 0 0 0 0
0 0 0 0 0 0 0 0 0 0 0 0 0 0 0 0 0 0 0 0 0 0 0 0 0 0 0 0 0 0 0 0 0 0 0 0 0 0 0 0 0 0 0
0 0 0 0 0 0 0 0 0 0 0 0 0 0 0 0 0 0 0 0 0 0 0 0 0 0 0 0 0 0 0 0 0 0 0 0 0 0 0 0 0 0 0
0 0 0 0 0 0 0 0 0 0 0 0 0 0 0 0 0 0 0 0 0 0 0 0 0 0 0 0 0 0 0 0 0 0 0 0 0 0 0 0 0 0 0
0 0 0 0 0 0 0 0 0 0 0 0 0 0 0 0 0 0 0 0 0 0 0 0 0 0 0 0 0 0 0 0 0 0 0 0 0 0 0 0 0 0 0
0 0 0 0 0 0 0 0 0 0 0 0 0 0 0 0 0 0 0 0 0 0 0 0 0 0 0 0 0 0 0 0 0 0 0 0 0 0 0 0 0 0 0
0 0 0 0 0 0 0 0 0 0 0 0 0 0 0 0 0 0 0 0 0 0 0 0 0 0 0 0 0 0 0 0 0 0 0 0 0 0 0 0 0 0 0
0 0 0 0 0 0 0 0 0 0 0 0 0 0 0 0 0 0 0 0 0 0 0 0 0 0 0 0 0 0 0 0 0 0 0 0 0 0 0 0 0 0 0
0 0 0 0 0 0 0 0 0 0 0 0 0 0 0 0 0 0 0 0 0 0 0 0 0 0 0 0 0 0 0 0 0 0 0 0 0 0 0 0 0 0 0
0 0 0 0 0 0 0 0 0 0 0 0 0 0 0 0 0 0 0 0 0 0 0 0 0 0 0 0 0 0 0 0 0 0 0 0 0 0 0 0 0 0 0
0 0 0 0 0 0 0 0 0 0 0 0 0 0 0 0 0 0 0 0 0 0 0 0 0 0 0 0 0 0 0 0 0 0 0 0 0 0 0 0 0 0 0
0 0 0 0 0 0 0 0 0 0 0 0 0 0 0 0 0 0 0 0 0 0 0 0 0 0 0 0 0 0 0 0 0 0 0 0 0 0 0 0 0 0 0
0 0 0 0 0 0 0 0 0 0 0 0 0 0 0 0 0 0 0 0 0 0 0 0 0 0 0 0 0 0 0 0 0 0 0 0 0 0 0 0 0 0 0
0 0 0 0 0 0 0 0 0 0 0 0 0 0 0 0 0 0 0 0 0 0 0 0 0 0 0 0 0 0 0 0 0 0 0 0 0 0 0 0 0 0 0
0 0 0 0 0 0 0 0 0 0 0 0 0 0 0 0 0 0 0 0 0 0 0 0 0 0 0 0 0 0 0 0 0 0 0 0 0 0 0 0 0 0 0
0 0 0 0 0 0 0 0 0 0 0 0 0 0 0 0 0 0 0 0 0 0 0 0 0 0 0 0 0 0 0 0 0 0 0 0 0 0 0 0 0 0 0
0 0 0 0 0 0 0 0 0 0 0 0 0 0 0 0 0 0 0 0 0 0 0 0 0 0 0 0 0 0 0 0 0 0 0 0 0 0 0 0 0 0 0
0 0 0 0 0 0 0 0 0 0 0 0 0 0 0 0 0 0 0 0 0 0 0 0 0 0 0 0 0 0 0 0 0 0 0 0 0 0 0 0 0 0 0
0 0 0 0 0 0 0 0 0 0 0 0 0 0 0 0 0 0 0 0 0 0 0 0 0 0 0 0 0 0 0 0 0 0 0 0 0 0 0 0 0 0 0
0 0 0 0 0 0 0 0 0 0 0 0 0 0 0 0 0 0 0 0 0 0 0 0 0 0 0 0 0 0 0 0 0 0 0 0 0 0 0 0 0 0 0
0 0 0 0 0 0 0 0 0 0 0 0 0 0 0 0 0 0 0 0 0 0 0 0 0 0 0 0 0 0 0 0 0 0 0 0 0 0 0 0 0 0 0
Wind_Speed
3 3 3 2 2 2 2 2 2 2 3 3 3 4 4 4 5 4 3 7 7 7 8 8 8 8 9 10 10 10 10 10 10 10 10 10 10 11 11 11 11 11 11
3 3 3 3 2 2 2 2 3 2 2 2 3 4 4 4 4 4 3 4 7 7 6 6 7 7 9 9 9 9 9 9 9 9 9 9 9 10 10 10 10 10 11
3 3 3 3 2 2 3 3 3 2 2 3 3 4 3 3 4 4 4 3 3 5 6 5 6 7 8 8 8 8 8 7 7 7 8 8 8 8 8 9 9 9 10
3 3 3 2 2 2 2 3 3 3 2 3 3 2 3 3 3 3 3 3 3 3 3 5 6 6 6 6 6 6 6 6 6 6 6 6 6 6 7 7 8 8 8
3 3 3 2 3 3 2 3 2 3 3 3 3 3 3 2 2 3 3 4 3 3 2 4 6 6 5 5 5 5 5 5 5 5 5 5 5 5 5 6 6 7 7
2 3 3 3 3 2 2 3 3 3 3 3 3 3 2 2 2 2 2 3 3 3 3 3 3 3 4 4 4 4 4 4 3 3 3 3 3 4 4 5 5 6 6
2 3 2 3 2 2 3 3 3 4 2 3 3 2 2 2 2 1 2 2 2 2 3 3 2 2 1 3 3 3 2 2 2 1 1 2 2 2 2 3 4 4 5
2 2 3 2 2 2 3 3 3 3 2 2 3 2 1 1 1 1 1 1 2 2 2 2 2 2 1 1 1 2 1 0 1 0 0 1 1 1 1 2 2 3 4
2 1 2 2 2 2 2 3 4 4 3 1 1 2 3 3 1 0 1 1 2 1 1 1 2 2 2 2 1 1 0 1 2 2 2 2 2 2 1 2 2 3 3
2 1 1 2 2 2 2 2 3 3 4 3 1 0 1 2 3 1 1 1 2 1 1 1 1 1 1 1 2 1 1 2 3 3 3 3 2 2 2 2 3 3 3
1 1 1 1 1 1 2 2 2 2 3 3 2 1 1 0 1 3 2 2 1 1 1 2 1 1 1 2 2 2 2 2 3 4 4 3 3 3 3 3 4 4 4
1 1 1 1 1 1 2 2 2 2 2 3 2 2 2 2 2 2 2 2 2 2 2 2 2 2 2 2 2 3 3 3 3 4 4 4 4 4 4 4 4 4 4
1 1 1 1 1 1 1 1 1 2 2 3 3 2 2 2 2 2 2 2 1 1 1 1 2 2 2 2 2 3 3 4 4 4 5 4 3 3 4 5 5 5 5
1 1 2 2 1 1 1 1 1 2 2 2 3 3 2 2 2 2 2 2 1 1 2 3 2 3 2 2 3 4 3 5 4 4 4 4 3 3 4 4 5 5 5
0 1 1 2 2 1 1 1 1 2 2 2 3 3 2 2 2 2 2 3 3 3 3 3 2 3 3 2 3 3 3 5 5 5 4 4 4 3 4 4 5 5 5
1 0 1 1 2 2 2 2 2 2 2 2 2 3 2 2 2 2 2 2 2 3 3 2 2 2 2 2 3 3 3 5 6 6 5 5 5 5 5 5 5 5 5
1 1 1 1 2 2 2 2 2 2 3 2 2 3 3 3 2 2 2 2 2 2 3 2 1 1 2 2 2 2 2 3 3 6 6 6 6 6 6 6 6 5 5
1 1 1 1 2 2 2 2 3 2 3 3 3 3 3 2 3 3 3 3 3 3 3 3 2 2 2 3 2 2 2 2 2 5 7 7 7 7 7 6 6 6 6
2 1 1 1 1 2 2 2 2 2 3 3 3 3 3 3 4 3 3 3 2 2 2 3 3 2 1 1 1 2 2 2 2 4 6 7 7 7 7 7 7 6 6
2 2 1 1 2 2 2 2 2 2 2 2 2 3 3 4 4 4 4 4 3 2 2 2 2 2 2 1 1 2 2 2 2 2 3 4 6 7 8 8 7 6 6
3 2 1 1 1 2 2 3 2 2 2 2 2 3 3 4 4 4 3 3 3 3 3 3 3 2 2 2 2 2 2 2 3 2 2 2 3 3 4 6 7 7 7
3 2 1 1 2 2 3 4 3 2 2 3 3 3 3 4 4 5 5 5 5 5 4 4 3 4 4 3 3 2 2 1 3 2 1 3 2 3 3 3 6 7 7
2 2 1 2 2 2 4 4 4 3 3 3 3 3 3 3 3 3 4 4 5 6 6 5 5 5 4 4 4 4 4 3 4 3 1 3 2 3 3 4 7 7 7
2 2 2 2 2 2 4 4 5 3 3 3 3 3 3 3 3 3 3 3 3 3 5 4 5 4 4 4 4 5 4 3 2 2 2 3 2 3 3 3 6 7 7
2 2 2 1 1 2 3 3 3 2 2 3 3 3 3 3 4 4 3 3 3 3 3 5 5 4 4 4 4 2 2 2 3 3 2 2 2 2 3 3 4 6 7
2 2 1 1 1 1 2 3 3 2 2 2 2 2 3 4 5 4 4 4 4 3 2 2 2 2 3 4 4 4 4 4 2 3 2 2 2 1 3 2 2 2 4
Wind_Direction
139 134 135 134 139 134 140 143 137 125 121 124 107 95 92 93 98 90 86 85 86 91 96 96 97 95 93 90 86 81 77 74 71 67 65 63 61 59 56 53 50 47 46
125 132 128 127 122 130 138 137 123 115 102 94 94 92 88 90 97 102 103 91 84 85 95 100 98 101 100 95 90 85 81 77 73 69 67 65 62 59 56 53 49 46 44
109 114 120 121 125 123 124 118 109 100 95 90 86 85 81 83 95 103 107 107 97 80 78 96 104 105 104 100 96 91 84 79 74 70 69 66 62 58 54 51 48 44 40
99 104 114 117 120 109 105 111 114 106 95 90 85 76 73 72 82 100 102 100 99 95 80 89 99 103 104 102 101 98 89 80 74 70 68 66 64 58 54 51 46 43 39
93 106 111 117 114 110 112 114 107 120 114 100 93 78 68 65 59 78 96 98 97 104 106 101 96 93 96 101 104 101 95 88 79 70 69 67 64 57 50 47 44 44 39
104 101 108 114 111 112 117 117 111 103 117 120 102 82 71 73 61 61 85 96 102 109 113 116 107 96 94 96 102 105 102 97 90 76 66 57 57 55 47 43 41 39 38
102 107 113 121 120 124 133 133 126 119 121 122 106 88 47 56 78 71 73 91 100 106 106 108 113 116 118 99 95 100 106 110 104 83 51 37 32 34 37 37 29 30 31
93 110 116 126 130 133 131 133 128 126 133 154 139 132 128 7 356 65 81 110 117 111 113 121 119 111 117 120 116 108 81 123 186 184 342 330 327 326 357 13 10 19 19
91 101 116 120 132 139 154 152 145 144 157 195 166 152 155 186 176 236 204 144 131 127 136 133 138 135 126 129 144 150 17 283 247 246 256 273 277 290 311 350 355 350 352
113 92 107 120 137 143 156 172 160 155 154 174 214 218 150 141 144 163 238 191 161 164 178 175 159 156 151 148 147 150 226 255 243 247 251 262 275 286 308 324 324 329 330
117 115 116 129 140 146 157 164 162 167 165 169 172 177 176 78 136 148 185 201 202 201 185 179 171 180 169 162 168 171 200 229 238 247 252 260 269 283 293 303 310 318 319
112 129 121 119 139 145 157 171 177 181 181 170 168 166 167 167 181 167 172 186 199 210 191 182 188 198 187 182 187 178 201 219 236 251 254 258 269 282 289 291 297 303 309
130 186 157 145 138 153 159 154 165 182 178 174 182 185 184 188 173 164 158 181 193 201 183 204 207 198 194 181 181 191 212 224 239 249 257 260 271 286 292 288 291 294 296
172 188 183 170 171 170 178 166 166 193 184 179 189 187 185 193 174 172 170 163 187 233 214 221 217 201 195 187 197 200 214 223 233 242 252 264 271 284 289 291 295 298 297
182 179 186 178 180 181 182 171 179 196 191 192 193 193 196 198 189 186 179 170 172 208 235 220 211 210 195 185 196 198 205 217 225 233 244 257 261 272 273 279 284 288 290
7 194 191 198 190 187 191 185 191 192 196 205 195 193 205 207 201 192 191 195 184 186 221 224 208 206 189 192 196 194 209 222 229 234 240 248 252 259 264 267 266 272 279
345 287 234 220 216 203 191 186 201 193 202 211 209 205 212 208 205 202 198 197 199 181 214 257 228 191 181 192 203 211 214 214 223 235 239 245 250 250 257 261 262 268 273
323 292 266 244 238 229 206 196 202 199 203 211 215 215 220 213 216 208 200 202 205 194 192 225 237 211 210 203 196 216 237 237 225 234 238 245 249 249 252 255 257 263 269
317 289 263 258 253 238 225 218 208 201 205 214 211 213 221 214 223 215 207 204 206 208 199 200 222 219 222 208 206 246 244 248 248 240 239 245 248 249 251 252 253 256 262
302 279 252 245 248 249 246 237 220 216 218 219 217 213 217 222 226 215 210 207 201 199 198 198 209 215 224 212 189 227 263 253 258 252 243 249 250 250 251 253 252 252 256
297 276 261 253 244 243 244 236 222 224 226 231 235 225 221 230 236 229 218 204 199 203 205 207 213 215 216 206 215 216 237 261 270 237 240 256 248 245 248 252 250 249 254
286 271 254 249 248 254 249 254 251 235 233 235 239 238 230 232 239 239 233 225 212 208 212 214 223 224 223 214 208 213 216 238 267 246 234 266 239 244 245 238 248 252 257
278 274 270 253 249 250 251 255 253 249 240 241 241 240 240 235 238 241 235 232 232 229 222 221 225 230 227 217 203 212 224 229 242 234 213 260 250 255 254 254 257 255 258
271 270 263 253 251 262 261 255 248 249 250 247 244 239 235 232 231 226 226 225 228 231 231 229 229 230 228 218 210 210 210 230 267 260 200 243 252 259 269 261 255 255 263
290 282 274 267 251 266 275 273 264 244 241 243 244 244 237 231 233 227 221 227 237 250 248 236 233 230 227 230 222 198 201 208 254 258 219 219 249 276 273 258 254 258 267
291 295 300 290 264 263 281 279 270 242 237 242 241 241 245 248 240 233 219 216 226 235 239 255 257 253 239 232 234 221 209 212 228 246 220 205 230 272 288 269 253 256 264